Time,TemperatureF,DewpointF,PressureIn,WindDirection,WindDirectionDegrees,WindSpeedMPH,WindSpeedGustMPH,Humidity,HourlyPrecipIn,Conditions,Clouds,dailyrainin,SoftwareType,DateUTC
2013-02-21 00:00:00,25.2,21.6,30.16,ENE,57,0.0,3.0,86,0.00,,,0.03,meteohub,2013-02-21 08:00:00,
2013-02-21 00:05:00,25.3,21.4,30.17,ENE,57,0.0,3.0,85,0.00,,,0.03,meteohub,2013-02-21 08:05:00,
2013-02-21 00:10:00,25.5,21.6,30.17,ENE,57,0.0,2.0,85,0.00,,,0.00,meteohub,2013-02-21 08:10:00,
2013-02-21 00:15:00,25.9,21.7,30.17,ENE,57,1.0,1.0,84,0.00,,,0.00,meteohub,2013-02-21 08:15:00,
2013-02-21 00:20:00,26.1,21.9,30.17,NW,321,2.0,2.0,84,0.00,,,0.00,meteohub,2013-02-21 08:20:00,
2013-02-21 00:25:00,26.4,22.8,30.18,NW,312,4.0,4.0,86,0.00,,,0.00,meteohub,2013-02-21 08:25:00,
2013-02-21 00:30:00,27.0,23.9,30.18,WNW,299,2.0,8.0,88,0.00,,,0.00,meteohub,2013-02-21 08:30:00,
2013-02-21 00:35:00,27.1,24.3,30.18,NW,325,3.0,8.0,89,0.00,,,0.00,meteohub,2013-02-21 08:35:00,
2013-02-21 00:40:00,27.1,24.3,30.18,WNW,292,2.0,7.0,89,0.00,,,0.00,meteohub,2013-02-21 08:40:00,
2013-02-21 00:46:00,27.3,24.8,30.18,WNW,291,5.0,7.0,90,0.00,,,0.00,meteohub,2013-02-21 08:46:00,
2013-02-21 00:51:00,27.1,24.3,30.18,NW,308,2.0,6.0,89,0.00,,,0.00,meteohub,2013-02-21 08:51:00,
2013-02-21 00:56:00,27.1,24.3,30.18,WNW,300,0.0,6.0,89,0.00,,,0.00,meteohub,2013-02-21 08:56:00,
2013-02-21 01:01:00,27.0,24.4,30.18,North,9,1.0,6.0,90,0.00,,,0.00,meteohub,2013-02-21 09:01:00,
2013-02-21 01:06:00,26.8,23.9,30.18,North,9,1.0,4.0,89,0.00,,,0.00,meteohub,2013-02-21 09:06:00,
2013-02-21 01:11:00,26.8,24.3,30.19,NNE,14,0.0,4.0,90,0.00,,,0.00,meteohub,2013-02-21 09:11:00,
2013-02-21 01:16:00,26.4,23.9,30.19,WNW,296,0.0,4.0,90,0.00,,,0.00,meteohub,2013-02-21 09:16:00,
2013-02-21 01:21:00,26.2,23.7,30.19,NNW,348,0.0,4.0,90,0.00,,,0.00,meteohub,2013-02-21 09:21:00,
2013-02-21 01:26:00,26.1,23.5,30.19,NNW,348,1.0,3.0,90,0.00,,,0.00,meteohub,2013-02-21 09:26:00,
2013-02-21 01:32:00,25.9,23.4,30.19,North,350,0.0,3.0,90,0.00,,,0.00,meteohub,2013-02-21 09:32:00,
2013-02-21 01:37:00,25.7,23.0,30.20,North,349,0.0,2.0,89,0.00,,,0.00,meteohub,2013-02-21 09:37:00,
2013-02-21 01:42:00,25.3,22.8,30.20,ENE,69,0.0,2.0,90,0.00,,,0.00,meteohub,2013-02-21 09:42:00,
2013-02-21 01:47:00,25.2,22.5,30.20,ENE,69,1.0,2.0,89,0.00,,,0.00,meteohub,2013-02-21 09:47:00,
2013-02-21 01:52:00,24.8,22.3,30.20,NNW,333,1.0,2.0,90,0.00,,,0.00,meteohub,2013-02-21 09:52:00,
2013-02-21 01:57:00,24.6,22.1,30.20,NNW,331,2.0,4.0,90,0.00,,,0.00,meteohub,2013-02-21 09:57:00,
2013-02-21 02:02:00,24.6,22.5,30.20,NW,316,1.0,4.0,91,0.00,,,0.00,meteohub,2013-02-21 10:02:00,
2013-02-21 02:07:00,24.4,21.9,30.20,NW,316,0.0,4.0,90,0.00,,,0.00,meteohub,2013-02-21 10:07:00,
2013-02-21 02:12:00,24.4,21.9,30.20,NW,316,0.0,4.0,90,0.00,,,0.00,meteohub,2013-02-21 10:12:00,
2013-02-21 02:17:00,24.3,21.7,30.20,NW,316,0.0,2.0,90,0.00,,,0.00,meteohub,2013-02-21 10:17:00,
2013-02-21 02:22:00,24.3,21.7,30.20,NW,316,0.0,2.0,90,0.00,,,0.00,meteohub,2013-02-21 10:22:00,
2013-02-21 02:27:00,23.9,21.4,30.19,WNW,297,0.0,1.0,90,0.00,,,0.00,meteohub,2013-02-21 10:27:00,
2013-02-21 02:32:00,23.7,21.2,30.19,WNW,297,0.0,3.0,90,0.00,,,0.00,meteohub,2013-02-21 10:32:00,
2013-02-21 02:37:00,23.5,21.0,30.19,WNW,297,0.0,3.0,90,0.00,,,0.00,meteohub,2013-02-21 10:37:00,
2013-02-21 02:42:00,23.2,20.7,30.19,WNW,297,0.0,1.0,90,0.00,,,0.00,meteohub,2013-02-21 10:42:00,
2013-02-21 02:47:00,22.8,20.3,30.19,WNW,297,0.0,1.0,90,0.00,,,0.00,meteohub,2013-02-21 10:47:00,
2013-02-21 02:52:00,22.5,19.9,30.19,WNW,297,0.0,1.0,90,0.00,,,0.00,meteohub,2013-02-21 10:52:00,
2013-02-21 02:57:00,22.3,19.8,30.19,WNW,297,0.0,0.0,90,0.00,,,0.00,meteohub,2013-02-21 10:57:00,
2013-02-21 03:02:00,21.9,19.4,30.20,WNW,297,1.0,0.0,90,0.00,,,0.00,meteohub,2013-02-21 11:02:00,
2013-02-21 03:07:00,21.6,19.0,30.19,WNW,297,2.0,2.0,90,0.00,,,0.00,meteohub,2013-02-21 11:07:00,
2013-02-21 03:12:00,21.2,18.7,30.19,South,177,2.0,3.0,90,0.00,,,0.00,meteohub,2013-02-21 11:12:00,
2013-02-21 03:17:00,21.4,19.4,30.19,South,184,1.0,3.0,92,0.00,,,0.00,meteohub,2013-02-21 11:17:00,
2013-02-21 03:22:00,21.6,19.6,30.20,West,277,1.0,3.0,92,0.00,,,0.00,meteohub,2013-02-21 11:22:00,
2013-02-21 03:27:00,21.0,18.9,30.21,NW,317,0.0,3.0,91,0.00,,,0.00,meteohub,2013-02-21 11:27:00,
2013-02-21 03:32:00,20.8,18.7,30.21,NW,317,0.0,3.0,91,0.00,,,0.00,meteohub,2013-02-21 11:32:00,
2013-02-21 03:37:00,20.7,18.5,30.21,NW,317,0.0,3.0,91,0.00,,,0.00,meteohub,2013-02-21 11:37:00,
2013-02-21 03:42:00,20.5,18.3,30.21,NW,317,0.0,2.0,91,0.00,,,0.00,meteohub,2013-02-21 11:42:00,
2013-02-21 03:47:00,20.1,18.0,30.22,NW,317,0.0,0.0,91,0.00,,,0.00,meteohub,2013-02-21 11:47:00,
2013-02-21 03:52:00,19.9,17.8,30.22,NW,317,0.0,1.0,91,0.00,,,0.00,meteohub,2013-02-21 11:52:00,
2013-02-21 03:57:00,19.8,17.6,30.23,NW,317,0.0,1.0,91,0.00,,,0.00,meteohub,2013-02-21 11:57:00,
2013-02-21 04:02:00,19.8,17.6,30.24,NW,317,2.0,0.0,91,0.00,,,0.00,meteohub,2013-02-21 12:02:00,
2013-02-21 04:07:00,20.1,18.5,30.24,NW,317,0.0,3.0,93,0.00,,,0.00,meteohub,2013-02-21 12:07:00,
2013-02-21 04:12:00,20.5,18.9,30.24,NNW,331,1.0,3.0,93,0.00,,,0.00,meteohub,2013-02-21 12:12:00,
2013-02-21 04:17:00,20.8,19.2,30.24,North,355,2.0,3.0,93,0.00,,,0.00,meteohub,2013-02-21 12:17:00,
2013-02-21 04:22:00,21.2,19.6,30.24,North,355,1.0,3.0,93,0.00,,,0.00,meteohub,2013-02-21 12:22:00,
2013-02-21 04:27:00,21.6,20.1,30.24,North,355,0.0,3.0,94,0.00,,,0.00,meteohub,2013-02-21 12:27:00,
2013-02-21 04:32:00,21.9,20.1,30.24,North,355,0.0,3.0,93,0.00,,,0.00,meteohub,2013-02-21 12:32:00,
2013-02-21 04:37:00,22.5,20.7,30.25,North,355,0.0,2.0,93,0.00,,,0.00,meteohub,2013-02-21 12:37:00,
2013-02-21 04:42:00,22.6,20.8,30.24,North,355,0.0,2.0,93,0.00,,,0.00,meteohub,2013-02-21 12:42:00,
2013-02-21 04:47:00,22.6,20.8,30.24,North,355,0.0,2.0,93,0.00,,,0.00,meteohub,2013-02-21 12:47:00,
2013-02-21 04:52:00,22.6,20.7,30.25,North,355,0.0,0.0,92,0.00,,,0.00,meteohub,2013-02-21 12:52:00,
2013-02-21 04:57:00,22.5,20.5,30.25,North,355,0.0,0.0,92,0.00,,,0.00,meteohub,2013-02-21 12:57:00,
2013-02-21 05:02:00,22.3,20.1,30.25,ESE,111,0.0,0.0,91,0.00,,,0.00,meteohub,2013-02-21 13:02:00,
2013-02-21 05:07:00,21.7,19.6,30.25,SE,141,0.0,0.0,91,0.00,,,0.00,meteohub,2013-02-21 13:07:00,
2013-02-21 05:12:00,21.6,19.0,30.25,SE,141,0.0,3.0,90,0.00,,,0.00,meteohub,2013-02-21 13:12:00,
2013-02-21 05:17:00,21.2,18.7,30.25,SE,141,0.0,3.0,90,0.00,,,0.00,meteohub,2013-02-21 13:17:00,
2013-02-21 05:22:00,20.8,18.3,30.25,SE,140,0.0,2.0,90,0.00,,,0.00,meteohub,2013-02-21 13:22:00,
2013-02-21 05:28:00,20.7,18.5,30.25,SE,140,0.0,1.0,91,0.00,,,0.00,meteohub,2013-02-21 13:28:00,
2013-02-21 05:33:00,20.3,17.8,30.25,SE,140,0.0,1.0,90,0.00,,,0.00,meteohub,2013-02-21 13:33:00,
2013-02-21 05:38:00,19.9,17.4,30.26,SE,140,0.0,0.0,90,0.00,,,0.00,meteohub,2013-02-21 13:38:00,
2013-02-21 05:43:00,19.8,17.2,30.27,SE,140,0.0,0.0,90,0.00,,,0.00,meteohub,2013-02-21 13:43:00,
2013-02-21 05:48:00,19.2,16.7,30.27,WNW,288,1.0,0.0,90,0.00,,,0.00,meteohub,2013-02-21 13:48:00,
2013-02-21 05:53:00,19.2,17.1,30.27,WNW,288,0.0,2.0,91,0.00,,,0.00,meteohub,2013-02-21 13:53:00,
2013-02-21 05:58:00,19.2,17.1,30.28,WNW,288,0.0,2.0,91,0.00,,,0.00,meteohub,2013-02-21 13:58:00,
2013-02-21 06:03:00,19.6,17.6,30.28,WNW,288,0.0,2.0,92,0.00,,,0.00,meteohub,2013-02-21 14:03:00,
2013-02-21 06:09:00,19.6,17.6,30.27,SW,217,2.0,0.0,92,0.00,,,0.00,meteohub,2013-02-21 14:09:00,
2013-02-21 06:14:00,19.0,16.5,30.27,SW,217,1.0,2.0,90,0.00,,,0.00,meteohub,2013-02-21 14:14:00,
2013-02-21 06:19:00,18.9,16.7,30.27,SW,220,0.0,2.0,91,0.00,,,0.00,meteohub,2013-02-21 14:19:00,
2013-02-21 06:24:00,18.9,16.7,30.27,SW,220,0.0,2.0,91,0.00,,,0.00,meteohub,2013-02-21 14:24:00,
2013-02-21 06:29:00,18.7,16.5,30.27,SW,220,0.0,2.0,91,0.00,,,0.00,meteohub,2013-02-21 14:29:00,
2013-02-21 06:34:00,18.3,15.8,30.28,WSW,251,0.0,2.0,90,0.00,,,0.00,meteohub,2013-02-21 14:34:00,
2013-02-21 06:39:00,18.7,16.5,30.27,WSW,251,0.0,2.0,91,0.00,,,0.00,meteohub,2013-02-21 14:39:00,
2013-02-21 06:44:00,18.7,16.5,30.27,SE,137,2.0,2.0,91,0.00,,,0.00,meteohub,2013-02-21 14:44:00,
2013-02-21 06:49:00,18.1,15.6,30.28,SE,137,0.0,3.0,90,0.00,,,0.00,meteohub,2013-02-21 14:49:00,
2013-02-21 06:55:00,18.0,15.4,30.28,SE,137,1.0,3.0,90,0.00,,,0.00,meteohub,2013-02-21 14:55:00,
2013-02-21 07:00:00,18.0,15.8,30.27,SE,137,0.0,3.0,91,0.00,,,0.00,meteohub,2013-02-21 15:00:00,
2013-02-21 07:05:00,18.0,15.8,30.27,SE,137,0.0,2.0,91,0.00,,,0.00,meteohub,2013-02-21 15:05:00,
2013-02-21 07:10:00,18.0,15.8,30.28,South,188,0.0,2.0,91,0.00,,,0.00,meteohub,2013-02-21 15:10:00,
2013-02-21 07:15:00,17.8,15.3,30.28,East,98,0.0,2.0,90,0.00,,,0.00,meteohub,2013-02-21 15:15:00,
2013-02-21 07:20:00,17.6,15.3,30.29,East,98,0.0,2.0,90,0.00,,,0.00,meteohub,2013-02-21 15:20:00,
2013-02-21 07:25:00,17.6,15.4,30.28,East,98,0.0,2.0,91,0.00,,,0.00,meteohub,2013-02-21 15:25:00,
2013-02-21 07:30:00,17.8,15.6,30.29,East,98,1.0,2.0,91,0.00,,,0.00,meteohub,2013-02-21 15:30:00,
2013-02-21 07:36:00,18.0,16.0,30.30,East,98,0.0,2.0,92,0.00,,,0.00,meteohub,2013-02-21 15:36:00,
2013-02-21 07:41:00,18.3,16.3,30.30,East,98,0.0,1.0,92,0.00,,,0.00,meteohub,2013-02-21 15:41:00,
2013-02-21 07:46:00,18.9,17.2,30.30,East,98,0.0,1.0,93,0.00,,,0.00,meteohub,2013-02-21 15:46:00,
2013-02-21 07:51:00,19.8,18.1,30.30,East,98,0.0,1.0,93,0.00,,,0.00,meteohub,2013-02-21 15:51:00,
2013-02-21 07:56:00,20.5,19.0,30.31,East,98,0.0,1.0,94,0.00,,,0.00,meteohub,2013-02-21 15:56:00,
2013-02-21 08:01:00,21.0,19.6,30.30,East,98,0.0,1.0,94,0.00,,,0.00,meteohub,2013-02-21 16:01:00,
2013-02-21 08:06:00,21.9,20.5,30.30,East,98,0.0,1.0,94,0.00,,,0.00,meteohub,2013-02-21 16:06:00,
2013-02-21 08:11:00,22.5,21.0,30.30,East,98,0.0,1.0,94,0.00,,,0.00,meteohub,2013-02-21 16:11:00,
2013-02-21 08:17:00,22.8,21.4,30.30,SSW,203,2.0,2.0,94,0.00,,,0.00,meteohub,2013-02-21 16:17:00,
2013-02-21 08:22:00,23.4,21.6,30.31,SSW,205,0.0,2.0,93,0.00,,,0.00,meteohub,2013-02-21 16:22:00,
2013-02-21 08:27:00,23.7,21.9,30.31,SSW,205,1.0,2.0,93,0.00,,,0.00,meteohub,2013-02-21 16:27:00,
2013-02-21 08:32:00,24.1,22.1,30.30,SSW,207,0.0,2.0,92,0.00,,,0.00,meteohub,2013-02-21 16:32:00,
2013-02-21 08:37:00,24.3,22.3,30.30,SSW,207,0.0,2.0,92,0.00,,,0.00,meteohub,2013-02-21 16:37:00,
2013-02-21 08:42:00,24.6,22.6,30.30,South,179,0.0,2.0,92,0.00,,,0.00,meteohub,2013-02-21 16:42:00,
2013-02-21 08:47:00,25.0,22.6,30.30,SSW,194,1.0,3.0,91,0.00,,,0.00,meteohub,2013-02-21 16:47:00,
2013-02-21 08:52:00,25.3,22.8,30.30,SSW,194,0.0,3.0,90,0.00,,,0.00,meteohub,2013-02-21 16:52:00,
2013-02-21 08:57:00,26.1,23.5,30.30,SSW,194,1.0,3.0,90,0.00,,,0.00,meteohub,2013-02-21 16:57:00,
2013-02-21 09:02:00,26.8,23.7,30.30,SW,221,0.0,2.0,88,0.00,,,0.00,meteohub,2013-02-21 17:02:00,
2013-02-21 09:07:00,27.3,23.9,30.30,SE,133,1.0,2.0,87,0.00,,,0.00,meteohub,2013-02-21 17:07:00,
2013-02-21 09:12:00,28.0,24.1,30.30,ESE,113,0.0,3.0,85,0.00,,,0.00,meteohub,2013-02-21 17:12:00,
2013-02-21 09:17:00,28.8,24.6,30.30,SE,144,1.0,3.0,84,0.00,,,0.00,meteohub,2013-02-21 17:17:00,
2013-02-21 09:22:00,29.5,25.0,30.30,SSE,157,1.0,3.0,83,0.00,,,0.00,meteohub,2013-02-21 17:22:00,
2013-02-21 09:27:00,29.7,24.6,30.30,West,278,1.0,3.0,81,0.00,,,0.00,meteohub,2013-02-21 17:27:00,
2013-02-21 09:32:00,29.8,24.4,30.31,WNW,289,0.0,3.0,80,0.00,,,0.00,meteohub,2013-02-21 17:32:00,
2013-02-21 09:37:00,30.0,24.3,30.30,South,188,1.0,3.0,79,0.00,,,0.00,meteohub,2013-02-21 17:37:00,
2013-02-21 09:42:00,30.4,24.3,30.30,South,189,1.0,3.0,78,0.00,,,0.00,meteohub,2013-02-21 17:42:00,
2013-02-21 09:47:00,31.3,25.5,30.31,South,189,0.0,3.0,79,0.00,,,0.00,meteohub,2013-02-21 17:47:00,
2013-02-21 09:52:00,30.9,23.9,30.31,SW,230,2.0,3.0,75,0.00,,,0.00,meteohub,2013-02-21 17:52:00,
2013-02-21 09:57:00,30.9,24.8,30.30,NNE,12,2.0,5.0,78,0.00,,,0.00,meteohub,2013-02-21 17:57:00,
2013-02-21 10:02:00,31.8,25.2,30.30,ENE,59,3.0,5.0,76,0.00,,,0.00,meteohub,2013-02-21 18:02:00,
2013-02-21 10:07:00,32.5,24.4,30.30,ENE,58,1.0,4.0,72,0.00,,,0.00,meteohub,2013-02-21 18:07:00,
2013-02-21 10:12:00,33.1,25.0,30.30,NNE,15,4.0,4.0,72,0.00,,,0.00,meteohub,2013-02-21 18:12:00,
2013-02-21 10:17:00,33.3,25.2,30.30,North,350,1.0,5.0,72,0.00,,,0.00,meteohub,2013-02-21 18:17:00,
2013-02-21 10:22:00,33.6,25.5,30.29,SW,223,2.0,5.0,72,0.00,,,0.00,meteohub,2013-02-21 18:22:00,
2013-02-21 10:27:00,33.6,25.2,30.30,West,261,2.0,5.0,71,0.00,,,0.00,meteohub,2013-02-21 18:27:00,
2013-02-21 10:32:00,33.1,24.4,30.30,NNW,328,1.0,6.0,70,0.00,,,0.00,meteohub,2013-02-21 18:32:00,
2013-02-21 10:37:00,33.3,24.3,30.30,NNE,30,1.0,6.0,69,0.00,,,0.00,meteohub,2013-02-21 18:37:00,
2013-02-21 10:42:00,33.3,24.8,30.30,WSW,237,4.0,7.0,71,0.00,,,0.00,meteohub,2013-02-21 18:42:00,
2013-02-21 10:47:00,33.6,26.2,30.29,WSW,243,1.0,7.0,74,0.00,,,0.00,meteohub,2013-02-21 18:47:00,
2013-02-21 10:52:00,34.0,25.9,30.29,WNW,298,3.0,7.0,72,0.00,,,0.00,meteohub,2013-02-21 18:52:00,
2013-02-21 10:57:00,33.6,24.8,30.29,WNW,291,1.0,5.0,70,0.00,,,0.00,meteohub,2013-02-21 18:57:00,
2013-02-21 11:02:00,33.6,25.2,30.29,WSW,238,2.0,5.0,71,0.00,,,0.00,meteohub,2013-02-21 19:02:00,
2013-02-21 11:08:00,34.0,26.2,30.30,WNW,294,0.0,5.0,73,0.00,,,0.00,meteohub,2013-02-21 19:08:00,
2013-02-21 11:13:00,34.7,26.2,30.29,NW,309,0.0,4.0,71,0.00,,,0.00,meteohub,2013-02-21 19:13:00,
2013-02-21 11:18:00,35.4,27.3,30.30,SW,224,0.0,3.0,72,0.00,,,0.00,meteohub,2013-02-21 19:18:00,
2013-02-21 11:23:00,36.1,27.0,30.30,South,171,2.0,3.0,69,0.00,,,0.00,meteohub,2013-02-21 19:23:00,
2013-02-21 11:28:00,36.7,27.1,30.29,WNW,292,2.0,3.0,68,0.00,,,0.00,meteohub,2013-02-21 19:28:00,
2013-02-21 11:33:00,36.9,27.3,30.30,NW,317,2.0,6.0,68,0.00,,,0.00,meteohub,2013-02-21 19:33:00,
2013-02-21 11:38:00,37.2,26.2,30.30,ENE,78,1.0,6.0,64,0.00,,,0.00,meteohub,2013-02-21 19:38:00,
2013-02-21 11:44:00,37.2,25.3,30.30,SSW,204,4.0,8.0,62,0.00,,,0.00,meteohub,2013-02-21 19:44:00,
2013-02-21 11:49:00,36.3,25.0,30.30,ESE,117,2.0,8.0,63,0.00,,,0.00,meteohub,2013-02-21 19:49:00,
2013-02-21 11:54:00,36.9,25.5,30.29,SE,137,1.0,8.0,63,0.00,,,0.00,meteohub,2013-02-21 19:54:00,
2013-02-21 11:59:00,36.7,25.0,30.29,SSW,204,1.0,7.0,62,0.00,,,0.00,meteohub,2013-02-21 19:59:00,
2013-02-21 12:04:00,36.1,25.2,30.29,South,190,2.0,7.0,64,0.00,,,0.00,meteohub,2013-02-21 20:04:00,
2013-02-21 12:09:00,36.7,25.3,30.29,ESE,113,1.0,7.0,63,0.00,,,0.00,meteohub,2013-02-21 20:09:00,
2013-02-21 12:14:00,36.9,25.5,30.29,SSE,165,1.0,6.0,63,0.00,,,0.00,meteohub,2013-02-21 20:14:00,
2013-02-21 12:20:00,37.2,25.7,30.28,SSW,194,4.0,7.0,63,0.00,,,0.00,meteohub,2013-02-21 20:20:00,
2013-02-21 12:25:00,37.0,25.7,30.28,SE,141,2.0,7.0,63,0.00,,,0.00,meteohub,2013-02-21 20:25:00,
2013-02-21 12:30:00,37.6,27.0,30.28,West,264,5.0,8.0,65,0.00,,,0.00,meteohub,2013-02-21 20:30:00,
2013-02-21 12:35:00,38.1,27.0,30.28,NW,323,3.0,8.0,64,0.00,,,0.00,meteohub,2013-02-21 20:35:00,
2013-02-21 12:40:00,37.9,26.1,30.28,WSW,256,0.0,8.0,62,0.00,,,0.00,meteohub,2013-02-21 20:40:00,
2013-02-21 12:45:00,38.5,27.0,30.27,SSW,192,2.0,8.0,63,0.00,,,0.00,meteohub,2013-02-21 20:45:00,
2013-02-21 12:50:00,38.3,26.1,30.27,West,281,5.0,9.0,61,0.00,,,0.00,meteohub,2013-02-21 20:50:00,
2013-02-21 12:56:00,37.6,25.3,30.28,West,279,3.0,9.0,61,0.00,,,0.00,meteohub,2013-02-21 20:56:00,
2013-02-21 13:01:00,37.8,26.2,30.28,West,281,1.0,9.0,63,0.00,,,0.00,meteohub,2013-02-21 21:01:00,
2013-02-21 13:06:00,38.5,27.3,30.28,WNW,290,3.0,8.0,64,0.00,,,0.00,meteohub,2013-02-21 21:06:00,
2013-02-21 13:11:00,38.8,25.7,30.27,SW,231,5.0,7.0,59,0.00,,,0.00,meteohub,2013-02-21 21:11:00,
2013-02-21 13:16:00,38.5,26.2,30.27,SW,215,5.0,6.0,61,0.00,,,0.00,meteohub,2013-02-21 21:16:00,
2013-02-21 13:21:00,37.2,25.7,30.27,NW,319,6.0,8.0,63,0.00,,,0.00,meteohub,2013-02-21 21:21:00,
2013-02-21 13:26:00,37.6,26.1,30.28,WNW,297,3.0,8.0,63,0.00,,,0.00,meteohub,2013-02-21 21:26:00,
2013-02-21 13:31:00,37.6,26.1,30.28,North,0,3.0,8.0,63,0.00,,,0.00,meteohub,2013-02-21 21:31:00,
2013-02-21 13:37:00,37.9,25.7,30.27,WSW,251,2.0,8.0,61,0.00,,,0.00,meteohub,2013-02-21 21:37:00,
2013-02-21 13:42:00,38.5,25.9,30.27,WNW,292,2.0,6.0,60,0.00,,,0.00,meteohub,2013-02-21 21:42:00,
2013-02-21 13:47:00,38.7,26.1,30.26,WNW,298,0.0,6.0,60,0.00,,,0.00,meteohub,2013-02-21 21:47:00,
2013-02-21 13:52:00,39.6,26.1,30.26,SW,218,1.0,5.0,58,0.00,,,0.00,meteohub,2013-02-21 21:52:00,
2013-02-21 13:57:00,39.6,25.5,30.26,NW,309,3.0,5.0,57,0.00,,,0.00,meteohub,2013-02-21 21:57:00,
2013-02-21 14:02:00,38.7,24.8,30.26,North,355,4.0,7.0,57,0.00,,,0.00,meteohub,2013-02-21 22:02:00,
2013-02-21 14:07:00,38.7,24.8,30.26,NW,323,3.0,7.0,57,0.00,,,0.00,meteohub,2013-02-21 22:07:00,
2013-02-21 14:12:00,39.0,25.5,30.25,NNE,28,1.0,7.0,58,0.00,,,0.00,meteohub,2013-02-21 22:12:00,
2013-02-21 14:17:00,40.3,25.9,30.26,North,355,2.0,5.0,56,0.00,,,0.00,meteohub,2013-02-21 22:17:00,
2013-02-21 14:22:00,40.6,24.8,30.25,ENE,57,1.0,5.0,53,0.00,,,0.00,meteohub,2013-02-21 22:22:00,
2013-02-21 14:27:00,40.8,25.0,30.26,WNW,288,3.0,3.0,53,0.00,,,0.00,meteohub,2013-02-21 22:27:00,
2013-02-21 14:32:00,40.6,25.7,30.26,NW,306,3.0,6.0,55,0.00,,,0.00,meteohub,2013-02-21 22:32:00,
2013-02-21 14:37:00,40.3,24.4,30.27,North,349,4.0,7.0,53,0.00,,,0.00,meteohub,2013-02-21 22:37:00,
2013-02-21 14:42:00,39.7,23.5,30.27,WNW,283,5.0,8.0,52,0.00,,,0.00,meteohub,2013-02-21 22:42:00,
2013-02-21 14:47:00,39.6,24.8,30.27,NW,321,7.0,10.0,55,0.00,,,0.00,meteohub,2013-02-21 22:47:00,
2013-02-21 14:52:00,39.6,23.4,30.27,NW,313,6.0,11.0,52,0.00,,,0.00,meteohub,2013-02-21 22:52:00,
2013-02-21 14:57:00,39.0,23.4,30.26,WNW,303,4.0,11.0,53,0.00,,,0.00,meteohub,2013-02-21 22:57:00,
2013-02-21 15:02:00,38.7,23.0,30.26,WNW,286,2.0,10.0,53,0.00,,,0.00,meteohub,2013-02-21 23:02:00,
2013-02-21 15:07:00,39.0,23.7,30.26,WNW,302,2.0,10.0,54,0.00,,,0.00,meteohub,2013-02-21 23:07:00,
2013-02-21 15:12:00,38.8,23.5,30.25,WNW,300,4.0,10.0,54,0.00,,,0.00,meteohub,2013-02-21 23:12:00,
2013-02-21 15:17:00,38.7,22.6,30.26,NNW,339,4.0,10.0,52,0.00,,,0.00,meteohub,2013-02-21 23:17:00,
2013-02-21 15:22:00,38.7,23.4,30.25,WNW,293,3.0,10.0,54,0.00,,,0.00,meteohub,2013-02-21 23:22:00,
2013-02-21 15:27:00,38.5,23.7,30.26,WNW,290,7.0,9.0,55,0.00,,,0.00,meteohub,2013-02-21 23:27:00,
2013-02-21 15:32:00,38.1,23.4,30.26,WNW,303,6.0,10.0,55,0.00,,,0.00,meteohub,2013-02-21 23:32:00,
2013-02-21 15:37:00,37.9,24.1,30.26,WNW,301,4.0,10.0,57,0.00,,,0.00,meteohub,2013-02-21 23:37:00,
2013-02-21 15:42:00,37.4,23.5,30.26,WNW,294,6.0,10.0,57,0.00,,,0.00,meteohub,2013-02-21 23:42:00,
2013-02-21 15:47:00,37.0,24.1,30.26,North,9,4.0,10.0,59,0.00,,,0.00,meteohub,2013-02-21 23:47:00,
2013-02-21 15:52:00,37.0,24.4,30.27,WNW,295,9.0,10.0,60,0.00,,,0.00,meteohub,2013-02-21 23:52:00,
2013-02-21 15:57:00,37.0,24.4,30.26,WNW,288,5.0,9.0,60,0.00,,,0.00,meteohub,2013-02-21 23:57:00,
2013-02-21 16:02:00,37.0,24.8,30.26,NW,313,4.0,9.0,61,0.00,,,0.00,meteohub,2013-02-22 00:02:00,
2013-02-21 16:07:00,36.9,24.6,30.26,North,355,3.0,9.0,61,0.00,,,0.00,meteohub,2013-02-22 00:07:00,
2013-02-21 16:12:00,36.9,25.5,30.25,NNW,329,1.0,8.0,63,0.00,,,0.00,meteohub,2013-02-22 00:12:00,
2013-02-21 16:17:00,37.0,26.4,30.25,WNW,300,2.0,8.0,65,0.00,,,0.00,meteohub,2013-02-22 00:17:00,
2013-02-21 16:22:00,37.4,25.5,30.26,NW,315,2.0,7.0,62,0.00,,,0.00,meteohub,2013-02-22 00:22:00,
2013-02-21 16:27:00,37.6,25.7,30.26,NW,312,3.0,6.0,62,0.00,,,0.00,meteohub,2013-02-22 00:27:00,
2013-02-21 16:32:00,37.0,26.1,30.26,WNW,284,2.0,5.0,64,0.00,,,0.00,meteohub,2013-02-22 00:32:00,
2013-02-21 16:37:00,37.6,27.0,30.26,WNW,296,1.0,6.0,65,0.00,,,0.00,meteohub,2013-02-22 00:37:00,
2013-02-21 16:42:00,37.6,26.1,30.26,WNW,294,2.0,6.0,63,0.00,,,0.00,meteohub,2013-02-22 00:42:00,
2013-02-21 16:48:00,37.2,26.2,30.26,WNW,290,3.0,6.0,64,0.00,,,0.00,meteohub,2013-02-22 00:48:00,
2013-02-21 16:53:00,37.2,26.2,30.26,WNW,291,3.0,6.0,64,0.00,,,0.00,meteohub,2013-02-22 00:53:00,
2013-02-21 16:58:00,37.2,26.2,30.26,WNW,295,2.0,5.0,64,0.00,,,0.00,meteohub,2013-02-22 00:58:00,
2013-02-21 17:03:00,37.2,25.7,30.27,NNW,333,5.0,5.0,63,0.00,,,0.00,meteohub,2013-02-22 01:03:00,
2013-02-21 17:08:00,36.9,25.9,30.26,North,0,2.0,6.0,64,0.00,,,0.00,meteohub,2013-02-22 01:08:00,
2013-02-21 17:13:00,36.3,26.1,30.27,NW,308,1.0,7.0,66,0.00,,,0.00,meteohub,2013-02-22 01:13:00,
2013-02-21 17:18:00,36.3,26.1,30.27,NW,325,1.0,7.0,66,0.00,,,0.00,meteohub,2013-02-22 01:18:00,
2013-02-21 17:23:00,36.3,26.1,30.27,NW,306,1.0,7.0,66,0.00,,,0.00,meteohub,2013-02-22 01:23:00,
2013-02-21 17:29:00,36.1,26.2,30.27,NNW,338,0.0,4.0,67,0.00,,,0.00,meteohub,2013-02-22 01:29:00,
2013-02-21 17:34:00,36.1,26.2,30.27,West,276,1.0,4.0,67,0.00,,,0.00,meteohub,2013-02-22 01:34:00,
2013-02-21 17:39:00,36.0,26.4,30.27,West,263,0.0,6.0,68,0.00,,,0.00,meteohub,2013-02-22 01:39:00,
2013-02-21 17:44:00,36.1,26.6,30.27,WNW,284,2.0,6.0,68,0.00,,,0.00,meteohub,2013-02-22 01:44:00,
2013-02-21 17:49:00,35.8,26.2,30.27,WNW,286,2.0,5.0,68,0.00,,,0.00,meteohub,2013-02-22 01:49:00,
2013-02-21 17:54:00,35.6,26.4,30.27,NW,325,1.0,7.0,69,0.00,,,0.00,meteohub,2013-02-22 01:54:00,
2013-02-21 17:59:00,35.1,26.2,30.27,WNW,298,3.0,7.0,70,0.00,,,0.00,meteohub,2013-02-22 01:59:00,
2013-02-21 18:04:00,34.5,26.4,30.28,NW,305,2.0,9.0,72,0.00,,,0.00,meteohub,2013-02-22 02:04:00,
2013-02-21 18:10:00,34.3,26.6,30.28,NW,314,1.0,9.0,73,0.00,,,0.00,meteohub,2013-02-22 02:10:00,
2013-02-21 18:15:00,34.2,26.4,30.28,NW,317,1.0,9.0,73,0.00,,,0.00,meteohub,2013-02-22 02:15:00,
2013-02-21 18:20:00,34.2,26.4,30.28,WNW,303,2.0,6.0,73,0.00,,,0.00,meteohub,2013-02-22 02:20:00,
2013-02-21 18:25:00,33.8,26.1,30.28,NW,314,2.0,6.0,73,0.00,,,0.00,meteohub,2013-02-22 02:25:00,
2013-02-21 18:30:00,33.3,25.5,30.28,NW,308,2.0,6.0,73,0.00,,,0.00,meteohub,2013-02-22 02:30:00,
2013-02-21 18:35:00,33.3,25.9,30.28,NW,314,2.0,4.0,74,0.00,,,0.00,meteohub,2013-02-22 02:35:00,
2013-02-21 18:40:00,33.1,26.1,30.28,NW,304,1.0,4.0,75,0.00,,,0.00,meteohub,2013-02-22 02:40:00,
2013-02-21 18:46:00,33.1,26.1,30.28,WNW,300,2.0,5.0,75,0.00,,,0.00,meteohub,2013-02-22 02:46:00,
2013-02-21 18:51:00,32.7,26.1,30.28,WNW,289,2.0,5.0,76,0.00,,,0.00,meteohub,2013-02-22 02:51:00,
2013-02-21 18:56:00,32.5,25.9,30.28,NW,310,2.0,6.0,76,0.00,,,0.00,meteohub,2013-02-22 02:56:00,
2013-02-21 19:01:00,32.5,25.9,30.28,NW,309,1.0,6.0,76,0.00,,,0.00,meteohub,2013-02-22 03:01:00,
2013-02-21 19:06:00,32.5,25.9,30.28,WNW,292,4.0,6.0,76,0.00,,,0.00,meteohub,2013-02-22 03:06:00,
2013-02-21 19:11:00,32.4,25.7,30.28,NW,304,2.0,7.0,76,0.00,,,0.00,meteohub,2013-02-22 03:11:00,
2013-02-21 19:16:00,32.2,25.7,30.28,NW,304,2.0,7.0,77,0.00,,,0.00,meteohub,2013-02-22 03:16:00,
2013-02-21 19:21:00,32.0,25.7,30.27,WNW,298,0.0,7.0,77,0.00,,,0.00,meteohub,2013-02-22 03:21:00,
2013-02-21 19:26:00,31.8,25.5,30.27,NW,308,1.0,6.0,77,0.00,,,0.00,meteohub,2013-02-22 03:26:00,
2013-02-21 19:31:00,31.8,25.5,30.27,NW,313,4.0,4.0,77,0.00,,,0.00,meteohub,2013-02-22 03:31:00,
2013-02-21 19:37:00,31.6,25.3,30.28,West,267,3.0,7.0,77,0.00,,,0.00,meteohub,2013-02-22 03:37:00,
2013-02-21 19:42:00,31.6,25.3,30.28,WNW,300,1.0,7.0,77,0.00,,,0.00,meteohub,2013-02-22 03:42:00,
2013-02-21 19:47:00,31.6,25.3,30.29,WNW,303,4.0,7.0,77,0.00,,,0.00,meteohub,2013-02-22 03:47:00,
2013-02-21 19:52:00,31.6,25.5,30.29,WNW,292,3.0,7.0,78,0.00,,,0.00,meteohub,2013-02-22 03:52:00,
2013-02-21 19:57:00,31.6,25.9,30.29,WNW,302,1.0,6.0,79,0.00,,,0.00,meteohub,2013-02-22 03:57:00,
2013-02-21 20:02:00,31.6,25.9,30.29,WNW,286,2.0,5.0,79,0.00,,,0.00,meteohub,2013-02-22 04:02:00,
2013-02-21 20:07:00,31.6,25.9,30.29,NNW,328,1.0,4.0,79,0.00,,,0.00,meteohub,2013-02-22 04:07:00,
2013-02-21 20:12:00,31.6,25.9,30.29,NW,315,1.0,4.0,79,0.00,,,0.00,meteohub,2013-02-22 04:12:00,
2013-02-21 20:17:00,31.6,25.5,30.29,WNW,297,2.0,4.0,78,0.00,,,0.00,meteohub,2013-02-22 04:17:00,
2013-02-21 20:22:00,32.0,25.9,30.29,WNW,297,2.0,5.0,78,0.00,,,0.00,meteohub,2013-02-22 04:22:00,
2013-02-21 20:27:00,32.2,26.1,30.30,WNW,286,1.0,5.0,78,0.00,,,0.00,meteohub,2013-02-22 04:27:00,
2013-02-21 20:33:00,32.4,25.9,30.30,NW,324,1.0,4.0,77,0.00,,,0.00,meteohub,2013-02-22 04:33:00,
2013-02-21 20:38:00,32.5,26.1,30.30,NW,315,2.0,3.0,77,0.00,,,0.00,meteohub,2013-02-22 04:38:00,
2013-02-21 20:43:00,32.5,25.9,30.30,NW,315,1.0,3.0,76,0.00,,,0.00,meteohub,2013-02-22 04:43:00,
2013-02-21 20:48:00,32.5,25.9,30.30,NW,315,0.0,3.0,76,0.00,,,0.00,meteohub,2013-02-22 04:48:00,
2013-02-21 20:53:00,32.4,25.9,30.30,NW,316,1.0,3.0,77,0.00,,,0.00,meteohub,2013-02-22 04:53:00,
2013-02-21 20:58:00,32.4,25.9,30.31,NNE,17,1.0,2.0,77,0.00,,,0.00,meteohub,2013-02-22 04:58:00,
2013-02-21 21:00:00,32.2,25.7,30.31,NNE,17,0.0,2.0,77,0.00,,,0.00,meteohub,2013-02-22 05:00:00,
2013-02-21 21:01:00,32.2,26.1,30.31,NNE,17,0.0,2.0,78,0.00,,,0.00,meteohub,2013-02-22 05:01:00,
2013-02-21 21:06:00,32.4,25.9,30.31,NNE,17,0.0,2.0,77,0.00,,,0.00,meteohub,2013-02-22 05:06:00,
2013-02-21 21:11:00,32.2,25.7,30.32,NNE,17,0.0,2.0,77,0.00,,,0.00,meteohub,2013-02-22 05:11:00,
2013-02-21 21:16:00,32.0,25.7,30.32,NNE,17,0.0,2.0,77,0.00,,,0.00,meteohub,2013-02-22 05:16:00,
2013-02-21 21:21:00,32.2,26.1,30.32,NNE,17,0.0,2.0,78,0.00,,,0.00,meteohub,2013-02-22 05:21:00,
2013-02-21 21:27:00,32.2,26.1,30.32,NNE,17,0.0,1.0,78,0.00,,,0.00,meteohub,2013-02-22 05:27:00,
2013-02-21 21:32:00,32.2,26.1,30.32,NNE,17,0.0,1.0,78,0.00,,,0.00,meteohub,2013-02-22 05:32:00,
2013-02-21 21:37:00,31.8,26.1,30.32,NNE,17,0.0,1.0,79,0.00,,,0.00,meteohub,2013-02-22 05:37:00,
2013-02-21 21:42:00,32.0,26.2,30.31,NNE,17,0.0,0.0,79,0.00,,,0.00,meteohub,2013-02-22 05:42:00,
2013-02-21 21:47:00,31.6,25.9,30.31,NNE,17,0.0,0.0,79,0.00,,,0.00,meteohub,2013-02-22 05:47:00,
2013-02-21 21:52:00,31.5,26.1,30.31,NNE,17,0.0,0.0,80,0.00,,,0.00,meteohub,2013-02-22 05:52:00,
2013-02-21 21:57:00,31.3,26.1,30.31,NNE,17,0.0,0.0,81,0.00,,,0.00,meteohub,2013-02-22 05:57:00,
2013-02-21 22:02:00,31.5,26.2,30.31,NNE,17,0.0,0.0,81,0.00,,,0.00,meteohub,2013-02-22 06:02:00,
2013-02-21 22:07:00,31.6,26.4,30.31,NNE,17,0.0,1.0,81,0.00,,,0.00,meteohub,2013-02-22 06:07:00,
2013-02-21 22:12:00,31.6,26.2,30.31,NNE,17,0.0,1.0,80,0.00,,,0.00,meteohub,2013-02-22 06:12:00,
2013-02-21 22:17:00,31.6,26.2,30.32,NNE,17,0.0,1.0,80,0.00,,,0.00,meteohub,2013-02-22 06:17:00,
2013-02-21 22:22:00,31.5,26.1,30.31,NNE,17,0.0,1.0,80,0.00,,,0.00,meteohub,2013-02-22 06:22:00,
2013-02-21 22:27:00,31.3,26.1,30.32,NNE,17,0.0,0.0,81,0.00,,,0.00,meteohub,2013-02-22 06:27:00,
2013-02-21 22:32:00,30.7,25.5,30.32,NNE,17,0.0,1.0,81,0.00,,,0.00,meteohub,2013-02-22 06:32:00,
2013-02-21 22:37:00,30.7,25.9,30.32,NW,304,1.0,3.0,82,0.00,,,0.00,meteohub,2013-02-22 06:37:00,
2013-02-21 22:42:00,30.9,26.1,30.32,WNW,294,2.0,3.0,82,0.00,,,0.00,meteohub,2013-02-22 06:42:00,
2013-02-21 22:47:00,31.1,26.2,30.32,WNW,300,0.0,3.0,82,0.00,,,0.00,meteohub,2013-02-22 06:47:00,
2013-02-21 22:52:00,31.3,26.4,30.32,WNW,296,1.0,3.0,82,0.00,,,0.00,meteohub,2013-02-22 06:52:00,
2013-02-21 22:57:00,31.5,26.6,30.32,WNW,296,0.0,3.0,82,0.00,,,0.00,meteohub,2013-02-22 06:57:00,
2013-02-21 23:02:00,31.6,26.4,30.32,WNW,294,1.0,3.0,81,0.00,,,0.00,meteohub,2013-02-22 07:02:00,
2013-02-21 23:07:00,31.5,26.2,30.32,NW,319,1.0,3.0,81,0.00,,,0.00,meteohub,2013-02-22 07:07:00,
2013-02-21 23:12:00,31.3,26.1,30.31,NW,306,0.0,4.0,81,0.00,,,0.00,meteohub,2013-02-22 07:12:00,
2013-02-21 23:17:00,31.3,26.1,30.31,NW,309,0.0,4.0,81,0.00,,,0.00,meteohub,2013-02-22 07:17:00,
2013-02-21 23:22:00,31.3,26.1,30.31,WNW,299,0.0,3.0,81,0.00,,,0.00,meteohub,2013-02-22 07:22:00,
2013-02-21 23:27:00,31.3,26.1,30.32,WNW,299,0.0,2.0,81,0.00,,,0.00,meteohub,2013-02-22 07:27:00,
2013-02-21 23:32:00,31.5,26.2,30.31,WNW,299,0.0,2.0,81,0.00,,,0.00,meteohub,2013-02-22 07:32:00,
2013-02-21 23:37:00,31.1,25.9,30.31,WNW,298,0.0,2.0,81,0.00,,,0.00,meteohub,2013-02-22 07:37:00,
2013-02-21 23:42:00,30.7,25.9,30.31,WNW,298,0.0,2.0,82,0.00,,,0.00,meteohub,2013-02-22 07:42:00,
2013-02-21 23:47:00,30.7,25.9,30.31,WNW,298,0.0,1.0,82,0.00,,,0.00,meteohub,2013-02-22 07:47:00,
2013-02-21 23:52:00,30.6,25.7,30.31,WNW,298,0.0,1.0,82,0.00,,,0.00,meteohub,2013-02-22 07:52:00,
2013-02-21 23:57:00,30.4,25.5,30.32,WNW,298,0.0,0.0,82,0.00,,,0.00,meteohub,2013-02-22 07:57:00,